Terminal Aerodrome Forecast
Issued by NWS Greer, SC

Home | Current Version | Previous Version | Text Only | Print | Product List | Glossary On
Versions: 1 2 3 4 5 6 7 8 9 10 11 12 13 14 15 16 17 18 19 20 21 22 23 24 25 26 27 28 29 30 31 32 33 34 35 36 37 38 39 40 41 42 43 44 45 46 47 48 49 50
000
FTUS42 KGSP 231700
TAFCLT
TAF
KCLT 231734Z 2318/2418 22006KT P6SM SCT035 SCT250
     FM232000 23005KT P6SM VCSH BKN035
     FM232300 23005KT P6SM SCT060
     FM241500 23004KT P6SM BKN080 PROB30 2416/2418 4SM TSRA
      BKN040CB=

USA.gov is the U.S. government's official web portal to all federal, state and local government web resources and services.